Terminal Aerodrome Forecast
Issued by NWS

Home | Current Version | Previous Version | Graphics & Text | Print | Product List | Glossary On
Versions: 1 2 3 4 5 6 7 8 9 10 11 12 13 14 15 16 17 18 19 20 21 22 23 24 25 26 27 28 29
000
FTUS43 KGRB 281507 AAA
TAFRHI
TAF AMD
KRHI 281507Z 2815/2912 20010KT P6SM SCT050 BKN080
     FM281700 16005KT P6SM SCT035 BKN080
      TEMPO 2823/2903 -RA BKN030
     FM290300 VRB03KT 6SM BR BKN025 OVC035
      TEMPO 2903/2907 2SM -RA BR BKN008 OVC015=

USA.gov is the U.S. government's official web portal to all federal, state and local government web resources and services.